Weather History for Fremont, NE

Change the Weather History Date:

Saturday, August 24, 2013

  Actual Average Record
Temperature  
Mean Temperature 82 °F -  
Max Temperature 91 °F 85 °F 104 °F (1955)
Min Temperature 74 °F 61 °F 51 °F (1957)
Cooling Degree Days 18    
Growing Degree Days 32 (Base 50)    
Moisture  
Dew Point 72 °F    
Average Humidity 70    
Maximum Humidity 86    
Minimum Humidity 55    
Precipitation  
Precipitation 0.00 in - - ()
Sea Level Pressure  
Sea Level Pressure 30.03 in    
Wind  
Wind Speed 12 mph (SSE)    
Max Wind Speed 18 mph    
Max Gust Speed 26 mph    
Visibility 10 miles    
Events Rain , Thunderstorm    
Averages and records for this station are not official NWS values.
T = Trace of Precipitation, MM = Missing Value Source: NWS Daily Summary

Daily Weather History Graph

Daily Weather History Graph

Search for Another Location

Airport:

Trip Planner

Search our weather history database for the weather conditions in past years. The results will help you decide how hot, cold, wet, or windy it might be!

Date:

Astronomy

Aug. 24, 2013 Rise Set
Actual Time 6:44 AM CDT 8:11 PM CDT
Civil Twilight 6:15 AM CDT 8:40 PM CDT
Nautical Twilight 5:40 AM CDT 9:15 PM CDT
Astronomical Twilight 5:03 AM CDT 9:51 PM CDT
Moon 10:02 PM CDT (8/24) 10:49 AM CDT (8/24)
Length of Visible Light 14h 24m
Length of Day
13h 27m
Waning Gibbous, 84% of the Moon is Illuminated
Aug 24
Waning Gibbous
Aug 28
Last Quarter
Sep 5
New
Sep 12
First Quarter
Sep 19
Full

Hourly Weather History & Observations

Time (CDT) Temp. Heat Index Dew Point Humidity Pressure Visibility Wind Dir Wind Speed Gust Speed Precip Events Conditions
12:15 AM 78.8 °F - 70.0 °F 74% 30.01 in 10.0 mi SE 11.5 mph 16.1 mph N/A   Clear
12:35 AM 78.8 °F - 70.0 °F 74% 30.01 in 10.0 mi SE 10.4 mph 17.3 mph N/A   Clear
12:55 AM 78.8 °F - 69.4 °F 73% 30.01 in 10.0 mi SE 11.5 mph - N/A   Clear
1:15 AM 78.4 °F - 69.1 °F 73% 30.01 in 10.0 mi SE 10.4 mph 16.1 mph N/A   Clear
1:35 AM 78.4 °F - 68.9 °F 72% 30.01 in 10.0 mi SE 10.4 mph - N/A   Clear
1:55 AM 78.3 °F - 68.9 °F 73% 30.02 in 10.0 mi SE 10.4 mph - N/A Thunderstorm Clear
2:15 AM 78.1 °F - 68.5 °F 72% 30.01 in 10.0 mi SE 11.5 mph - N/A   Clear
2:35 AM 77.0 °F - 69.3 °F 77% 30.01 in 10.0 mi SSE 6.9 mph - N/A Rain Light Rain
2:55 AM 76.6 °F - 69.4 °F 78% 30.01 in 10.0 mi SSE 11.5 mph - N/A Rain Light Rain
3:15 AM 75.6 °F - 69.8 °F 82% 30.01 in 10.0 mi SSE 11.5 mph - N/A Rain Light Rain
3:35 AM 76.1 °F - 69.6 °F 80% 30.02 in 10.0 mi SSE 10.4 mph - N/A   Clear
3:55 AM 76.1 °F - 69.4 °F 80% 30.02 in 10.0 mi SSE 9.2 mph - N/A   Clear
4:15 AM 76.1 °F - 69.3 °F 79% 30.03 in 10.0 mi SSE 9.2 mph - N/A   Clear
4:35 AM 75.7 °F - 69.4 °F 81% 30.03 in 10.0 mi SSE 9.2 mph - N/A   Clear
4:55 AM 75.7 °F - 69.4 °F 81% 30.03 in 10.0 mi SSE 8.1 mph - N/A   Clear
5:15 AM 75.7 °F - 69.4 °F 81% 30.04 in 10.0 mi SSE 6.9 mph - N/A   Mostly Cloudy
5:35 AM 75.2 °F - 69.8 °F 83% 30.04 in 10.0 mi SE 6.9 mph - N/A Rain Light Rain
5:55 AM 74.5 °F - 70.0 °F 86% 30.03 in 10.0 mi SSE 9.2 mph - N/A   Scattered Clouds
6:15 AM 74.8 °F - 70.0 °F 85% 30.03 in 10.0 mi SE 10.4 mph - N/A   Clear
6:35 AM 75.2 °F - 70.0 °F 84% 30.03 in 10.0 mi SE 10.4 mph - N/A   Clear
6:55 AM 75.2 °F - 70.0 °F 84% 30.03 in 10.0 mi SE 11.5 mph - N/A   Clear
7:15 AM 75.2 °F - 70.0 °F 84% 30.03 in 10.0 mi SE 10.4 mph - N/A   Clear
7:35 AM 75.4 °F - 70.2 °F 84% 30.04 in 10.0 mi SE 10.4 mph - N/A   Clear
7:55 AM 75.9 °F - 70.3 °F 83% 30.05 in 10.0 mi SE 10.4 mph 16.1 mph N/A   Clear
8:15 AM 76.8 °F - 70.7 °F 81% 30.05 in 10.0 mi SE 10.4 mph - N/A   Clear
8:35 AM 77.5 °F - 70.9 °F 80% 30.05 in 10.0 mi SE 11.5 mph 18.4 mph N/A   Clear
8:55 AM 77.9 °F - 71.1 °F 79% 30.06 in 10.0 mi SE 12.7 mph 17.3 mph N/A   Clear
9:15 AM 78.1 °F - 71.4 °F 80% 30.06 in 10.0 mi SSE 12.7 mph 18.4 mph N/A   Clear
9:35 AM 79.2 °F - 72.1 °F 79% 30.06 in 10.0 mi SSE 12.7 mph 18.4 mph N/A Thunderstorm Clear
9:55 AM 79.0 °F - 72.3 °F 80% 30.06 in 10.0 mi SSE 12.7 mph - N/A   Clear
10:15 AM 79.7 °F - 72.7 °F 79% 30.06 in 10.0 mi SSE 10.4 mph 16.1 mph N/A   Clear
10:35 AM 81.3 °F 86.3 °F 73.2 °F 76% 30.06 in 10.0 mi South 10.4 mph - N/A   Clear
10:55 AM 83.1 °F 89.2 °F 73.4 °F 72% 30.06 in 10.0 mi SSE 11.5 mph 17.3 mph N/A   Clear
11:15 AM 83.7 °F 89.7 °F 73.0 °F 70% 30.06 in 10.0 mi SSE 12.7 mph 18.4 mph N/A   Clear
11:35 AM 84.6 °F 91.4 °F 73.6 °F 69% 30.05 in 10.0 mi SSE 16.1 mph 19.6 mph N/A   Clear
11:55 AM 85.5 °F 92.6 °F 73.6 °F 67% 30.05 in 10.0 mi SSE 12.7 mph 20.7 mph N/A   Clear
12:15 PM 85.3 °F 92.2 °F 73.4 °F 67% 30.05 in 10.0 mi SSE 15.0 mph 20.7 mph N/A   Clear
12:35 PM 86.9 °F 93.7 °F 72.5 °F 62% 30.04 in 10.0 mi SSE 18.4 mph 23.0 mph N/A   Clear
12:55 PM 88.2 °F 95.5 °F 72.7 °F 60% 30.03 in 10.0 mi SSE 13.8 mph 21.9 mph N/A   Clear
1:15 PM 88.0 °F 95.1 °F 72.7 °F 60% 30.03 in 10.0 mi SSE 15.0 mph 23.0 mph N/A   Clear
1:35 PM 88.3 °F 95.9 °F 72.7 °F 60% 30.02 in 10.0 mi SSE 15.0 mph 19.6 mph N/A   Clear
1:55 PM 89.8 °F 98.1 °F 73.4 °F 58% 30.02 in 10.0 mi SSE 15.0 mph 21.9 mph N/A   Clear
2:15 PM 89.8 °F 98.1 °F 73.4 °F 58% 30.02 in 10.0 mi SSE 15.0 mph 21.9 mph N/A   Clear
2:35 PM 90.3 °F 99.3 °F 73.6 °F 58% 30.02 in 10.0 mi SSE 16.1 mph 23.0 mph N/A   Clear
2:55 PM 90.9 °F 98.9 °F 72.7 °F 55% 30.02 in 10.0 mi SSE 18.4 mph 26.5 mph N/A   Clear
3:15 PM 90.9 °F 98.9 °F 72.9 °F 55% 30.01 in 10.0 mi SSE 16.1 mph 24.2 mph N/A   Clear
3:35 PM 91.0 °F 99.3 °F 73.0 °F 55% 30.01 in 10.0 mi SSE 18.4 mph 26.5 mph N/A   Clear
3:55 PM 91.4 °F 100.7 °F 73.6 °F 56% 30.00 in 10.0 mi SSE 11.5 mph 25.3 mph N/A   Clear
4:15 PM 91.2 °F 100.2 °F 73.4 °F 56% 30.00 in 10.0 mi SSE 18.4 mph 24.2 mph N/A   Clear
4:35 PM 91.4 °F 101.3 °F 74.1 °F 57% 30.00 in 10.0 mi SSE 16.1 mph 21.9 mph N/A   Clear
4:55 PM 91.6 °F 101.1 °F 73.9 °F 56% 30.00 in 10.0 mi SSE 17.3 mph 24.2 mph N/A   Clear
5:15 PM 91.4 °F 100.7 °F 73.6 °F 56% 29.99 in 10.0 mi SSE 17.3 mph 21.9 mph N/A   Clear
5:35 PM 90.9 °F 100.6 °F 74.3 °F 58% 29.99 in 10.0 mi SSE 11.5 mph 19.6 mph N/A   Clear
5:55 PM 90.5 °F 100.3 °F 74.3 °F 59% 29.99 in 10.0 mi SSE 13.8 mph 18.4 mph N/A   Clear
6:15 PM 90.0 °F 99.6 °F 74.3 °F 60% 29.99 in 10.0 mi SSE 12.7 mph - N/A   Clear
6:35 PM 89.6 °F 98.2 °F 73.6 °F 59% 29.99 in 10.0 mi SSE 13.8 mph 19.6 mph N/A   Clear
6:55 PM 88.9 °F 97.1 °F 73.2 °F 60% 29.99 in 10.0 mi SSE 9.2 mph 18.4 mph N/A   Clear
7:15 PM 88.3 °F 95.4 °F 72.5 °F 59% 30.00 in 10.0 mi SSE 12.7 mph 20.7 mph N/A   Clear
7:35 PM 87.1 °F 94.5 °F 73.0 °F 63% 30.00 in 10.0 mi SSE 12.7 mph 18.4 mph N/A   Clear
7:55 PM 86.0 °F 92.6 °F 72.5 °F 64% 30.00 in 10.0 mi SSE 10.4 mph 18.4 mph N/A   Clear
8:15 PM 85.1 °F 91.1 °F 72.0 °F 65% 30.00 in 10.0 mi SSE 11.5 mph - N/A   Clear
8:35 PM 84.2 °F 89.6 °F 71.8 °F 66% 30.01 in 10.0 mi SSE 9.2 mph - N/A   Clear
8:55 PM 83.8 °F 88.9 °F 71.6 °F 66% 30.01 in 10.0 mi SE 11.5 mph 16.1 mph N/A   Clear
9:15 PM 83.5 °F 88.5 °F 71.6 °F 67% 30.02 in 10.0 mi SSE 10.4 mph 18.4 mph N/A   Clear
9:35 PM 82.8 °F 87.7 °F 71.6 °F 69% 30.03 in 10.0 mi SSE 11.5 mph - N/A   Clear
9:55 PM 82.2 °F 86.9 °F 71.4 °F 70% 30.04 in 10.0 mi SSE 11.5 mph 17.3 mph N/A   Clear
10:15 PM 81.9 °F 86.2 °F 71.1 °F 70% 30.04 in 10.0 mi SSE 12.7 mph 18.4 mph N/A   Clear
10:35 PM 81.0 °F 84.9 °F 71.2 °F 72% 30.04 in 10.0 mi SSE 11.5 mph - N/A   Clear
10:55 PM 81.0 °F 84.9 °F 71.1 °F 72% 30.05 in 10.0 mi SSE 12.7 mph 20.7 mph N/A   Clear
11:15 PM 80.6 °F 84.2 °F 70.9 °F 72% 30.05 in 10.0 mi SSE 10.4 mph 16.1 mph N/A   Clear
11:35 PM 80.6 °F 84.2 °F 70.9 °F 72% 30.05 in 10.0 mi SSE 15.0 mph 21.9 mph N/A   Clear
11:55 PM 80.1 °F 83.4 °F 70.7 °F 73% 30.05 in 10.0 mi SSE 16.1 mph 20.7 mph N/A   Clear